[[{"header":{"parameterUnit":"m.s-1","parameterCategory":1,"la1":30.2991,"la2":30.254,"lo1":-89.0895,"lo2":-89.0444,"dy":0.0017,"dx":0.0017,"nx":28,"ny":28,"refTime":"2023-07-18T09:00:00:Z","depth":0,"parameterNumber":2,"parameterNumberName":"U-component_of_WINDS"},"data":[0,0,0,0,0,0,0,0,0,0,0,0,0,0,0,0,0,0,0,0,0,0,0,0,0,0,0,0,0,0,0,0,0,0,0,0,0,0,0,0,0,0,0,0,0,0,0,0,0,0,0,0,0,0,0,0,0,0,-0.305,-0.3049,0,-0.2955,-0.2954,-0.2953,-0.2904,-0.2904,-0.2904,-0.2904,-0.2806,-0.2803,-0.2801,0,0,0,0,0,0,0,0,0,0,0,0,0,-0.3191,-0.3189,-0.3051,-0.3049,-0.3048,-0.2955,-0.2954,-0.2953,-0.2904,-0.2904,-0.2904,-0.2904,-0.2806,-0.2803,-0.28,0,0,0,0,0,0,0,0,0,0,0,0,0,-0.3116,-0.3188,-0.3051,-0.3013,-0.3008,-0.2955,-0.2954,-0.2952,-0.2904,-0.2904,-0.2904,-0.2904,-0.2807,-0.2804,-0.28,-0.2778,0,0,-0.2788,-0.2787,0,0,0,0,0,0,0,0,-0.3121,-0.3111,-0.3019,-0.3015,-0.301,-0.2941,-0.2968,-0.2894,-0.2904,-0.2943,-0.2904,-0.2904,-0.2851,-0.2843,-0.2826,-0.2773,-0.2769,-0.2788,-0.2786,-0.2784,-0.2783,0,0,0,0,0,0,0,-0.3126,-0.3115,-0.3013,-0.3018,-0.3012,-0.3,-0.299,-0.2953,-0.2899,-0.294,-0.2936,-0.2926,-0.2848,-0.283,-0.2823,-0.2768,-0.2788,-0.2785,-0.2782,-0.2781,-0.2693,-0.2693,0,0,0,0,0,0,-0.3137,-0.312,-0.3016,-0.301,-0.3066,-0.2998,-0.2986,-0.2963,-0.2899,-0.2889,-0.2926,-0.2924,-0.2836,-0.2828,-0.2819,-0.2789,-0.2784,-0.278,-0.2778,-0.2693,-0.2693,-0.2693,0,0,0,0,0,0,-0.314,-0.3128,-0.302,-0.3064,-0.3049,-0.2996,-0.2971,-0.2962,-0.2943,-0.2888,-0.2878,-0.2917,-0.2836,-0.2825,-0.2789,-0.2785,-0.2779,-0.2775,-0.2693,-0.2693,-0.2693,-0.273,0,0,0,0,0,0,-0.3145,-0.313,-0.3121,-0.3064,-0.3047,-0.2991,-0.297,-0.296,-0.2936,-0.2933,-0.2877,-0.2868,-0.2835,-0.2795,-0.2785,-0.278,-0.2772,-0.2693,-0.2693,-0.2693,-0.2728,-0.2731,-0.2733,0,0,0,0,0,-0.315,-0.3135,-0.3121,-0.3108,-0.3034,-0.299,-0.2981,-0.2943,-0.2936,-0.2927,-0.2892,-0.2869,-0.2788,-0.2791,-0.278,-0.2774,-0.2693,-0.2693,-0.2693,-0.2727,-0.273,-0.2733,0,0,0,0,0,0,-0.3193,-0.3127,-0.311,-0.3076,-0.3039,-0.2982,-0.2969,-0.2947,-0.2912,-0.291,-0.2865,-0.2853,-0.2821,-0.2794,-0.2799,-0.2749,-0.2738,-0.2736,-0.2768,-0.277,-0.2773,-0.278,-0.2769,0,0,0,0,0,-0.3198,-0.3168,-0.3112,-0.3087,-0.307,-0.3023,-0.3002,-0.2977,-0.2937,-0.2921,-0.2883,-0.2845,-0.2811,-0.2789,-0.2755,-0.2724,-0.2712,-0.2715,-0.2717,-0.2719,-0.2717,-0.27,-0.27,-0.2693,-0.2693,-0.2693,0,0,-0.3209,-0.3169,-0.3153,-0.3095,-0.3063,-0.3033,-0.301,-0.2979,-0.2956,-0.2916,-0.288,-0.2851,-0.2806,-0.2773,-0.2756,-0.2749,-0.2717,-0.2719,-0.2721,-0.2718,-0.27,-0.2701,-0.2701,-0.2693,-0.2693,-0.2693,0,0,-0.3214,-0.318,-0.3156,-0.3125,-0.3078,-0.3047,-0.3041,-0.2988,-0.2967,-0.293,-0.2899,-0.2872,-0.2814,-0.2783,-0.2759,-0.2753,-0.2731,-0.2743,-0.2755,-0.2738,-0.2739,-0.2739,-0.2737,-0.2737,-0.2742,-0.2742,-0.2742,0,-0.3233,-0.3186,-0.3147,-0.3118,-0.3093,-0.3056,-0.3031,-0.3003,-0.2947,-0.2931,-0.2924,-0.2851,-0.2817,-0.2777,-0.2776,-0.2758,-0.275,-0.2749,-0.2742,-0.2742,-0.2741,-0.2739,-0.2738,-0.2744,-0.2744,-0.2743,-0.2743,0,-0.3213,-0.3181,-0.3168,-0.3114,-0.3088,-0.3062,-0.3019,-0.2997,-0.2974,-0.2944,-0.2907,-0.2866,-0.2823,-0.2811,-0.2788,-0.2768,-0.2765,-0.275,-0.2738,-0.2745,-0.2742,-0.274,-0.2746,-0.2746,-0.2745,-0.2745,0,0,-0.3241,-0.3167,-0.3163,-0.3138,-0.3084,-0.3058,-0.303,-0.2988,-0.2971,-0.2934,-0.2909,-0.2861,-0.2848,-0.2821,-0.2795,-0.278,-0.2778,-0.2767,-0.2765,-0.2771,-0.2753,-0.2764,-0.2764,-0.2764,-0.2763,-0.2763,-0.2757,0,-0.3238,-0.3186,-0.315,-0.3112,-0.3082,-0.3047,-0.3022,-0.2986,-0.2958,-0.2928,-0.2897,-0.2864,-0.2848,-0.2832,-0.2816,-0.2782,-0.2774,-0.2782,-0.274,-0.2739,-0.2753,-0.2762,-0.2774,-0.277,-0.2756,-0.2755,-0.2755,0,-0.3227,-0.3191,-0.315,-0.3099,-0.3086,-0.3064,-0.3023,-0.2996,-0.2954,-0.2934,-0.2906,-0.2878,-0.2848,-0.2838,-0.2796,-0.2802,-0.2783,-0.2763,-0.2762,-0.2757,-0.2748,-0.2757,-0.2768,-0.2768,-0.2753,-0.2753,-0.2753,0,-0.3252,-0.3194,-0.3162,-0.3142,-0.3081,-0.3067,-0.3042,-0.3,-0.2977,-0.2941,-0.2926,-0.2887,-0.2866,-0.2836,-0.2799,-0.2796,-0.276,-0.2748,-0.2743,-0.2744,-0.2737,-0.2738,-0.2745,-0.2725,-0.2725,-0.2725,-0.2725,0,-0.3253,-0.3229,-0.3172,-0.3152,-0.3125,-0.3084,-0.3058,-0.303,-0.2993,-0.2968,-0.2935,-0.2911,-0.2864,-0.2835,-0.2806,-0.2775,-0.2766,-0.2749,-0.2742,-0.2752,-0.2754,-0.2739,-0.2738,-0.2725,-0.2725,-0.2725,-0.2725,0,-0.3276,-0.3237,-0.3199,-0.3145,-0.3131,-0.3114,-0.3068,-0.3047,-0.3017,-0.2985,-0.2975,-0.2928,-0.2892,-0.2853,-0.2804,-0.2784,-0.2755,-0.2744,-0.2769,-0.2765,-0.2762,-0.2763,-0.276,-0.2758,-0.274,-0.274,-0.274,0,-0.3278,-0.3259,-0.3204,-0.3184,-0.3159,-0.3128,-0.3105,-0.3064,-0.3041,-0.2993,-0.2979,-0.294,-0.2908,-0.2852,-0.2814,-0.2776,-0.2764,-0.2766,-0.2758,-0.2769,-0.2764,-0.2766,-0.2764,-0.2768,-0.2768,-0.2768,-0.2769,0,-0.3288,-0.3269,-0.3237,-0.3197,-0.317,-0.3138,-0.3104,-0.309,-0.3042,-0.3018,-0.2981,-0.2956,-0.2906,-0.2869,-0.2827,-0.28,-0.2777,-0.2771,-0.2768,-0.2779,-0.2794,-0.2786,-0.2775,-0.2772,-0.2771,-0.2771,-0.2771,-0.2771,-0.33,-0.3282,-0.324,-0.3205,-0.3175,-0.3144,-0.3123,-0.309,-0.3059,-0.3015,-0.2993,-0.2956,-0.2916,-0.2857,-0.2831,-0.2802,-0.2795,-0.279,-0.2789,-0.2789,-0.2792,-0.2799,-0.2794,-0.2794,-0.2794,-0.2794,-0.2794,0,-0.3308,-0.3279,-0.3247,-0.3201,-0.3174,-0.3154,-0.3115,-0.3094,-0.3062,-0.3026,-0.2995,-0.2953,-0.2917,-0.2876,-0.2837,-0.2822,-0.281,-0.2813,-0.2813,-0.2808,-0.28,-0.2807,-0.2823,-0.2823,-0.2823,-0.2823,-0.2823,-0.2823,-0.3309,-0.3277,-0.3254,-0.3207,-0.3178,-0.3142,-0.3122,-0.3093,-0.3065,-0.3019,-0.2989,-0.2962,-0.2924,-0.2883,-0.2849,-0.2838,-0.2825,-0.2831,-0.2817,-0.2811,-0.2808,-0.2806,-0.2812,-0.2829,-0.2829,-0.2826,-0.2826,-0.2827]},{"header":{"parameterUnit":"m.s-1","parameterCategory":1,"la1":30.2991,"la2":30.254,"lo1":-89.0895,"lo2":-89.0444,"dy":0.0017,"dx":0.0017,"nx":28,"ny":28,"refTime":"2023-07-18T09:00:00:Z","depth":0,"parameterNumber":3,"parameterNumberName":"V-component_of_WINDS"},"data":[0,0,0,0,0,0,0,0,0,0,0,0,0,0,0,0,0,0,0,0,0,0,0,0,0,0,0,0,0,0,0,0,0,0,0,0,0,0,0,0,0,0,0,0,0,0,0,0,0,0,0,0,0,0,0,0,0,0,4.3196,4.3195,0,4.3138,4.3138,4.3137,4.3074,4.3073,4.3072,4.3071,4.3008,4.3008,4.3007,0,0,0,0,0,0,0,0,0,0,0,0,0,4.3249,4.3248,4.3196,4.3195,4.3195,4.3138,4.3138,4.3137,4.3074,4.3073,4.3072,4.3071,4.3009,4.3008,4.3007,0,0,0,0,0,0,0,0,0,0,0,0,0,4.3212,4.3248,4.3196,4.3157,4.3152,4.3139,4.3138,4.3137,4.3074,4.3073,4.3072,4.307,4.3009,4.3008,4.3007,4.3026,0,0,4.3003,4.3002,0,0,0,0,0,0,0,0,4.3214,4.321,4.3163,4.3159,4.3155,4.3112,4.3133,4.3099,4.3075,4.3104,4.3071,4.307,4.3044,4.304,4.3032,4.3023,4.302,4.3003,4.3002,4.3001,4.3001,0,0,0,0,0,0,0,4.3217,4.3212,4.3173,4.3162,4.3157,4.3141,4.3134,4.3127,4.3082,4.3101,4.3096,4.3091,4.3041,4.3033,4.303,4.3019,4.3003,4.3002,4.3001,4.3,4.3024,4.3026,0,0,0,0,0,0,4.3226,4.3215,4.3175,4.3171,4.3182,4.3141,4.3133,4.3127,4.3082,4.3074,4.3092,4.3088,4.3036,4.3031,4.3027,4.3047,4.3001,4.3,4.2999,4.3023,4.3025,4.3026,0,0,0,0,0,0,4.3227,4.3223,4.3177,4.3192,4.3185,4.3141,4.3135,4.3127,4.3118,4.3075,4.3066,4.3092,4.3034,4.3029,4.3027,4.3044,4.3,4.2999,4.3021,4.3023,4.3025,4.3088,0,0,0,0,0,0,4.3229,4.3224,4.3231,4.3192,4.3184,4.3179,4.3136,4.3126,4.3117,4.3111,4.3073,4.3065,4.3033,4.3029,4.3026,4.3042,4.2998,4.3019,4.3022,4.3025,4.3084,4.3092,4.3098,0,0,0,0,0,4.3231,4.325,4.3232,4.3227,4.3193,4.318,4.3175,4.3139,4.3118,4.3125,4.3098,4.3066,4.3043,4.303,4.3025,4.3041,4.3018,4.3021,4.3024,4.3081,4.309,4.3098,0,0,0,0,0,0,4.329,4.3244,4.3224,4.3231,4.321,4.317,4.3177,4.315,4.3134,4.3129,4.3084,4.3076,4.308,4.306,4.3046,4.3058,4.3026,4.3029,4.307,4.3079,4.3086,4.309,4.2996,0,0,0,0,0,4.3305,4.3299,4.3259,4.3269,4.326,4.3221,4.3214,4.3188,4.3164,4.3155,4.3127,4.3104,4.3091,4.3084,4.307,4.3081,4.3071,4.3089,4.3097,4.3103,4.3105,4.311,4.3117,4.3036,4.3036,4.3036,0,0,4.3333,4.3307,4.3306,4.328,4.3261,4.3256,4.3214,4.3209,4.3205,4.3153,4.3151,4.313,4.3101,4.3106,4.3106,4.3089,4.3126,4.3107,4.3112,4.3111,4.3114,4.3121,4.3128,4.3038,4.3038,4.3038,0,0,4.3383,4.3363,4.337,4.3352,4.3324,4.3298,4.33,4.3264,4.3248,4.3245,4.3207,4.32,4.318,4.3161,4.3149,4.3194,4.3164,4.319,4.3227,4.3232,4.3239,4.3244,4.326,4.3266,4.3193,4.3193,4.3193,0,4.3422,4.3413,4.3376,4.3375,4.3365,4.332,4.3326,4.331,4.3279,4.3272,4.3254,4.3228,4.3206,4.3206,4.3217,4.3209,4.3209,4.3194,4.3241,4.3246,4.3251,4.3265,4.3271,4.3196,4.3196,4.3195,4.3195,0,4.3463,4.3458,4.3466,4.3439,4.3429,4.3432,4.3395,4.3389,4.3365,4.334,4.3338,4.331,4.3289,4.3288,4.3263,4.3284,4.3275,4.325,4.3217,4.3262,4.3275,4.3281,4.3201,4.32,4.3199,4.3198,0,0,4.3547,4.3501,4.3504,4.3492,4.3459,4.3453,4.3454,4.3436,4.3432,4.3412,4.3411,4.3396,4.3373,4.3359,4.3332,4.3336,4.3374,4.331,4.3309,4.3323,4.3396,4.3415,4.3422,4.3354,4.3355,4.3356,4.3398,0,4.3591,4.359,4.3558,4.3566,4.356,4.3518,4.3519,4.3498,4.3476,4.3467,4.3441,4.3432,4.3402,4.3393,4.3396,4.3369,4.3388,4.3365,4.3352,4.3352,4.3361,4.3429,4.3449,4.349,4.3403,4.3404,4.3405,0,4.3642,4.3627,4.3635,4.3603,4.3599,4.36,4.3581,4.3574,4.355,4.3533,4.3519,4.3489,4.3486,4.3456,4.3452,4.3437,4.343,4.3416,4.3417,4.3414,4.3381,4.3428,4.3503,4.3509,4.3412,4.3412,4.3411,0,4.3703,4.3685,4.3688,4.3678,4.364,4.3642,4.3626,4.36,4.3592,4.3575,4.3569,4.3552,4.3542,4.3529,4.3495,4.3476,4.3495,4.3461,4.348,4.3481,4.3485,4.3485,4.356,4.3481,4.3481,4.3481,4.3481,0,4.3755,4.3762,4.3715,4.3716,4.3723,4.3685,4.3691,4.3671,4.3649,4.3646,4.3607,4.3605,4.356,4.3552,4.3525,4.3525,4.3521,4.3507,4.35,4.351,4.3512,4.3505,4.3501,4.3483,4.3482,4.3482,4.3482,0,4.3824,4.3793,4.3793,4.3758,4.3749,4.3756,4.3725,4.3724,4.37,4.3696,4.3693,4.3655,4.3643,4.3608,4.3587,4.3569,4.3578,4.3564,4.3587,4.3582,4.3603,4.3601,4.3675,4.3683,4.3599,4.36,4.3601,0,4.386,4.3864,4.383,4.3826,4.3812,4.3805,4.3797,4.376,4.3752,4.3726,4.3729,4.3715,4.3701,4.3685,4.3655,4.3639,4.3624,4.3651,4.3622,4.3633,4.3625,4.3625,4.3625,4.3658,4.3659,4.366,4.366,0,4.3926,4.3911,4.3901,4.3886,4.3878,4.3864,4.3847,4.3846,4.3804,4.3798,4.3787,4.3777,4.3757,4.3743,4.3723,4.3705,4.3676,4.367,4.3674,4.3684,4.3698,4.3691,4.3604,4.3668,4.3668,4.3667,4.3667,4.3666,4.3979,4.3982,4.3958,4.3949,4.3933,4.3919,4.3917,4.3894,4.3884,4.3866,4.3844,4.3836,4.3812,4.3782,4.3766,4.3758,4.3743,4.3748,4.3749,4.3751,4.3756,4.3699,4.3754,4.3754,4.3754,4.3754,4.3753,0,4.4044,4.4027,4.4019,4.3998,4.3991,4.3965,4.3946,4.3941,4.3935,4.3916,4.3904,4.3892,4.3879,4.3848,4.3832,4.3832,4.3818,4.3829,4.3828,4.3824,4.3771,4.3769,4.384,4.384,4.384,4.384,4.384,4.384,4.4076,4.4079,4.4061,4.4056,4.4038,4.4031,4.4022,4.4009,4.3994,4.3982,4.3972,4.3952,4.3928,4.391,4.3897,4.3888,4.3884,4.3899,4.3886,4.3836,4.3828,4.382,4.3819,4.3899,4.3899,4.394,4.3941,4.3941]}]]